Dewpoint
-6 -5 -5 -5 -3 -4 -4 -3 -3 -4 -3 -3 -2 -3 -7 -7 -1 4 4 3 4 3 1 -3 -3 -3 -3 -3 -1 -2 -2 -2 -1 -1 -2 -2 -2 -2 -3 -3 -0 -0 0 1 0 1 -0 -5 -5 -2 -4 -4 -4 -4
-6 -5 -5 -4 -4 -4 -3 -3 -3 -3 -3 -4 -4 -3 -3 -7 -7 1 4 4 3 4 1 0 -1 -3 -3 -4 -4 -2 -3 -2 -2 -1 -2 -1 -0 -1 -1 -0 -3 -1 -3 -1 -1 -1 -4 -5 -4 -4 -5 -4 -4 -4
-5 -5 -4 -4 -4 -4 -3 -3 -3 -3 -3 -3 -3 -3 -2 -4 -7 -3 3 4 3 3 3 2 1 -1 -3 -2 -3 -3 -2 -2 -3 -3 -1 -1 -0 -1 0 -1 -2 -3 -4 -2 -2 -3 -3 -4 -3 -3 -4 -3 -3 -3
-5 -5 -5 -6 -5 -4 -3 -3 -3 -2 -2 -2 -3 -2 -2 -2 -5 -7 -0 4 3 3 3 1 1 1 -0 -2 -2 -3 -3 -2 -2 -1 -0 0 1 -2 -1 -2 -2 -3 -3 -3 -2 -3 -3 -3 -3 -3 -3 -3 -3 -3
-5 -5 -5 -4 -4 -3 -3 -3 -3 -3 -3 -4 -3 -2 -2 -3 -2 -4 -4 3 3 3 1 1 1 1 1 -0 -1 -1 -1 -2 -1 1 1 1 0 0 -0 -1 -0 -2 -2 0 2 -2 -3 -3 -3 -4 -4 -4 -3 -2
-6 -7 -5 -5 -4 -3 -3 -3 -2 -3 -3 -2 -2 -2 -1 -2 -1 -1 0 2 3 3 2 1 1 1 2 1 1 1 0 -1 0 2 3 2 2 2 2 2 -1 -1 -2 -1 -2 -3 -3 -3 -4 -4 -3 -2 -2 -2
-6 -6 -5 -6 -5 -4 -3 -3 -3 -2 -1 -0 -0 1 1 -0 -1 -0 -0 2 3 3 3 1 1 1 2 2 2 1 1 2 2 2 2 2 2 1 1 1 -3 -2 -3 -1 -3 -3 -3 -3 -3 -3 -3 -2 -2 -2
-6 -5 -5 -5 -5 -3 -3 -3 -3 -1 -0 2 2 3 2 -1 -1 0 1 2 2 3 3 2 -0 0 1 1 1 2 2 2 2 1 1 1 1 1 2 -1 -2 -3 -3 -4 -5 -6 -6 -4 -4 -4 -4 -4 -4 -3
-7 -5 -6 -6 -4 -3 -3 -3 -2 -0 0 3 3 2 -1 -1 0 -0 2 3 3 3 1 -0 1 1 -0 -1 -0 0 1 1 -0 -0 0 1 1 1 0 -1 -3 -5 -5 -5 -9 -11 -9 -5 -4 -4 -6 -6 -6 -5
-6 -5 -6 -9 -4 -3 -3 -3 -2 -0 -1 -1 -1 -1 -1 -0 -1 2 2 2 1 1 0 -1 -1 -1 -0 -1 -1 -2 -1 -1 -0 -1 -1 0 -0 -3 -2 -3 -3 -7 -10 -12 -13 -8 -5 -5 -5 -6 -6 -6 -8 -10
-6 -6 -7 -11 -5 -4 -3 -3 -3 -1 -0 -1 -2 -3 -1 0 1 0 -2 -0 -2 -1 -2 -2 -2 -2 -2 -1 -2 -2 -2 -2 -1 -2 -1 -2 -2 -6 -6 -4 -8 -10 -10 -10 -9 -6 -6 -6 -7 -9 -10 -12 -14 -15
-7 -6 -7 -8 -5 -5 -4 -3 -3 -3 -4 -3 -2 -2 -2 -2 -3 -3 -3 -3 -1 -2 -3 -3 -2 -2 -2 -2 -3 -3 -3 -3 -2 -4 -3 -3 -6 -8 -9 -5 -5 -7 -8 -8 -8 -10 -12 -15 -15 -16 -16 -16 -16 -17
-8 -5 -13 -8 -5 -7 -5 -4 -3 -2 -2 -2 -3 -4 -4 -5 -4 -3 -3 -4 -3 -4 -4 -3 -3 -3 -3 -3 -4 -3 -3 -3 -5 -4 -4 -7 -8 -10 -7 -6 -8 -11 -15 -17 -17 -17 -16 -15 -15 -15 -16 -17 -17 -17
-6 -7 -15 -9 -12 -10 -8 -6 -5 -3 -3 -4 -5 -5 -5 -5 -5 -5 -5 -6 -4 -4 -3 -4 -3 -3 -4 -4 -4 -4 -4 -5 -5 -5 -6 -8 -8 -11 -7 -11 -18 -17 -16 -16 -15 -15 -14 -13 -13 -15 -17 -16 -16 -16
-8 -13 -13 -17 -13 -12 -12 -10 -7 -6 -5 -6 -6 -6 -5 -6 -6 -5 -4 -4 -4 -4 -5 -5 -5 -5 -4 -5 -4 -5 -5 -4 -6 -6 -7 -9 -13 -11 -14 -17 -17 -17 -17 -16 -15 -13 -13 -13 -12 -14 -15 -15 -14 -15
-9 -16 -14 -17 -15 -13 -13 -11 -8 -6 -6 -7 -7 -6 -6 -5 -5 -5 -5 -5 -5 -5 -4 -5 -5 -5 -5 -5 -5 -5 -5 -5 -6 -7 -9 -13 -14 -16 -17 -16 -15 -14 -14 -13 -13 -13 -13 -13 -13 -14 -14 -14 -15 -13
-12 -11 -15 -18 -21 -23 -14 -10 -8 -7 -6 -7 -7 -7 -7 -6 -6 -6 -5 -5 -6 -8 -6 -6 -6 -6 -6 -6 -6 -8 -7 -6 -7 -9 -14 -16 -16 -15 -14 -14 -13 -13 -13 -13 -12 -13 -13 -14 -13 -14 -15 -13 -13 -13
-10 -14 -16 -20 -22 -26 -19 -10 -8 -8 -7 -8 -7 -7 -7 -7 -6 -6 -6 -12 -13 -10 -8 -7 -8 -7 -7 -7 -6 -7 -8 -10 -11 -12 -13 -15 -14 -13 -13 -12 -12 -12 -13 -15 -15 -14 -14 -15 -14 -12 -13 -14 -13 -13
-8 -12 -16 -17 -19 -20 -17 -12 -8 -8 -8 -8 -7 -7 -7 -7 -6 -6 -8 -12 -13 -12 -12 -12 -10 -9 -9 -10 -9 -10 -11 -12 -11 -13 -14 -12 -12 -12 -12 -12 -14 -16 -17 -17 -16 -15 -12 -12 -13 -14 -14 -13 -12 -12
-9 -11 -15 -16 -18 -18 -13 -11 -9 -9 -9 -8 -8 -8 -7 -7 -6 -6 -7 -12 -15 -14 -10 -9 -9 -11 -13 -12 -13 -14 -16 -16 -15 -13 -11 -10 -11 -12 -14 -18 -18 -17 -15 -13 -12 -12 -13 -15 -15 -14 -13 -12 -12 -13
-11 -13 -14 -16 -16 -15 -10 -9 -9 -9 -8 -9 -9 -8 -8 -7 -7 -7 -7 -8 -10 -9 -9 -9 -9 -10 -12 -12 -13 -13 -13 -12 -13 -13 -12 -11 -12 -16 -18 -17 -14 -13 -12 -12 -13 -14 -15 -15 -14 -13 -12 -12 -13 -13
-10 -12 -13 -14 -14 -12 -10 -10 -9 -9 -10 -10 -10 -9 -10 -10 -10 -10 -8 -8 -8 -8 -8 -8 -8 -10 -11 -11 -11 -11 -11 -11 -11 -11 -12 -12 -15 -16 -15 -14 -13 -12 -12 -12 -13 -14 -15 -14 -13 -12 -12 -12 -12 -13
-10 -12 -12 -13 -13 -11 -11 -10 -11 -11 -13 -11 -11 -13 -13 -12 -10 -9 -10 -10 -10 -10 -9 -9 -8 -8 -9 -9 -9 -10 -10 -10 -10 -11 -13 -15 -15 -15 -14 -13 -12 -12 -12 -13 -14 -14 -14 -13 -12 -12 -12 -12 -12 -12
-11 -11 -11 -10 -10 -13 -10 -11 -11 -11 -12 -15 -12 -13 -13 -13 -11 -11 -12 -11 -11 -10 -9 -9 -9 -8 -8 -8 -9 -10 -11 -12 -13 -13 -13 -13 -13 -13 -12 -12 -12 -12 -13 -13 -14 -14 -13 -12 -12 -12 -12 -12 -12 -12
-11 -10 -10 -13 -10 -13 -17 -17 -18 -16 -16 -19 -13 -17 -17 -13 -16 -13 -14 -11 -11 -11 -10 -9 -8 -8 -8 -9 -9 -11 -12 -13 -13 -13 -12 -12 -12 -12 -12 -12 -12 -13 -14 -14 -13 -13 -13 -12 -12 -12 -12 -12 -12 -12
-12 -11 -13 -12 -13 -14 -14 -14 -16 -15 -17 -13 -18 -16 -14 -17 -14 -15 -14 -11 -11 -11 -11 -11 -11 -12 -12 -12 -12 -12 -12 -11 -11 -11 -11 -11 -11 -11 -11 -12 -13 -14 -13 -13 -13 -13 -12 -12 -12 -12 -12 -12 -12 -12
-13 -13 -10 -9 -10 -11 -12 -11 -11 -13 -13 -13 -17 -18 -18 -16 -16 -14 -12 -12 -11 -11 -11 -11 -11 -11 -11 -11 -12 -12 -12 -12 -13 -13 -12 -12 -13 -13 -13 -13 -13 -13 -13 -13 -13 -13 -12 -12 -12 -12 -12 -12 -12 -12
-10 -10 -14 -10 -10 -10 -14 -15 -13 -11 -12 -11 -12 -14 -14 -12 -12 -13 -12 -12 -11 -11 -11 -11 -12 -12 -12 -12 -13 -14 -14 -14 -14 -14 -14 -14 -14 -14 -14 -14 -14 -13 -13 -13 -13 -13 -13 -13 -12 -12 -12 -12 -12 -12
-10 -10 -10 -13 -11 -10 -11 -14 -13 -10 -10 -10 -12 -10 -12 -13 -13 -13 -12 -12 -12 -12 -12 -12 -12 -13 -14 -14 -14 -14 -14 -14 -14 -14 -14 -14 -14 -14 -14 -13 -13 -13 -13 -13 -13 -13 -13 -12 -12 -13 -13 -12 -12 -12
-11 -10 -11 -13 -15 -13 -12 -11 -11 -11 -10 -10 -11 -12 -13 -14 -13 -13 -12 -12 -13 -13 -12 -13 -14 -15 -15 -15 -15 -15 -15 -14 -14 -14 -14 -14 -14 -14 -14 -14 -13 -13 -13 -13 -13 -13 -12 -12 -12 -12 -12 -12 -12 -12
-11 -10 -10 -11 -13 -12 -12 -11 -11 -11 -11 -11 -11 -12 -14 -14 -14 -14 -13 -13 -13 -13 -14 -14 -15 -15 -16 -16 -16 -16 -15 -14 -14 -14 -14 -14 -14 -14 -14 -14 -14 -13 -13 -13 -13 -12 -12 -12 -12 -12 -12 -12 -12 -13
-11 -11 -12 -15 -13 -13 -12 -12 -12 -12 -12 -12 -13 -13 -14 -14 -15 -14 -14 -14 -13 -13 -13 -14 -15 -16 -16 -16 -16 -16 -15 -15 -14 -14 -14 -14 -14 -14 -14 -14 -14 -13 -13 -13 -13 -13 -12 -12 -12 -12 -13 -13 -13 -13
-13 -12 -12 -12 -12 -12 -12 -12 -13 -13 -13 -13 -13 -13 -13 -13 -15 -15 -15 -14 -14 -13 -13 -14 -16 -16 -16 -16 -16 -15 -15 -15 -14 -14 -14 -14 -14 -14 -13 -14 -13 -12 -12 -12 -12 -12 -12 -12 -13 -13 -13 -13 -13 -13
Wind_Speed
36 36 39 40 40 41 42 42 39 40 41 43 42 41 38 38 42 39 47 43 38 24 30 16 30 17 10 10 5 10 6 3 2 4 4 4 4 5 2 3 6 7 7 4 2 2 7 8 4 5 3 6 17 16
38 39 42 44 44 43 44 45 45 45 45 46 48 49 45 43 44 42 48 47 46 31 19 25 41 30 23 20 20 22 3 8 12 3 2 3 3 2 4 3 2 3 5 4 7 4 1 15 1 4 7 11 10 13
39 40 44 47 46 46 47 48 49 51 51 51 51 54 54 52 48 47 46 45 45 37 30 37 29 25 34 26 21 13 9 10 9 7 7 3 3 4 5 5 4 3 4 2 2 3 3 9 5 5 6 3 4 7
39 42 44 48 46 49 50 51 54 54 59 58 64 62 61 57 56 54 56 49 51 18 12 16 27 40 29 30 27 25 10 16 10 10 3 3 2 6 3 0 3 3 9 6 2 1 3 4 6 7 1 2 4 7
40 42 46 46 47 54 53 56 59 63 67 73 79 72 72 71 63 56 59 52 59 42 10 9 18 25 28 32 28 24 20 18 14 6 2 3 4 3 2 1 3 8 5 5 4 6 4 5 5 2 5 6 8 7
41 43 47 47 51 52 54 59 66 75 79 85 80 77 82 77 67 52 44 60 61 55 12 5 10 16 22 23 24 19 21 18 10 8 4 4 4 4 3 3 5 7 5 8 4 9 6 2 3 4 6 8 9 9
41 44 47 50 52 52 56 63 73 79 78 73 71 67 67 76 72 59 31 30 68 62 13 5 6 11 17 19 18 19 19 8 5 7 5 6 4 8 2 4 1 7 7 4 9 5 3 4 2 1 2 5 7 8
39 42 46 48 50 51 55 67 76 71 59 47 44 47 50 71 66 56 45 29 53 51 13 5 4 8 22 8 7 10 8 8 5 7 7 5 7 4 4 5 7 8 11 11 8 4 3 2 3 2 1 1 2 5
38 41 45 45 47 48 53 65 68 46 37 15 18 37 54 56 30 52 45 30 50 24 8 5 10 5 15 7 8 6 6 2 5 2 4 9 3 5 4 13 11 9 6 6 2 4 4 4 3 2 1 3 4 4
36 40 41 44 44 45 50 58 53 21 23 39 51 31 11 26 43 46 39 23 11 8 7 3 11 4 14 5 3 6 4 3 3 2 8 2 2 5 9 9 7 5 5 4 5 7 7 6 4 2 2 2 1 3
33 36 39 40 41 40 43 49 48 9 24 12 8 7 31 44 30 6 6 6 6 2 6 7 8 8 5 4 4 3 3 2 3 3 4 3 3 5 10 11 10 10 9 8 8 8 7 6 5 4 3 2 6 10
31 31 35 36 36 35 40 39 40 35 15 13 15 16 13 4 6 6 2 3 4 3 3 4 10 13 9 7 5 4 3 2 4 6 3 4 3 16 16 16 15 14 13 14 11 9 7 4 2 3 6 9 11 13
31 27 30 31 32 32 34 31 38 32 15 13 8 7 6 5 5 3 4 3 4 3 6 12 7 8 7 7 6 2 3 3 10 2 4 3 13 17 19 19 19 17 15 12 9 4 1 3 6 8 9 11 14 19
24 24 27 29 28 28 30 22 31 30 11 7 6 6 4 5 4 4 3 4 5 14 24 19 8 4 6 3 3 4 3 3 2 4 5 3 18 20 22 21 19 15 9 4 1 3 6 9 10 10 11 16 20 24
20 23 22 25 27 26 26 23 21 17 7 6 6 6 5 4 7 7 10 17 20 21 21 16 10 7 3 4 2 4 3 3 3 3 3 18 22 24 21 17 12 8 4 3 6 9 12 12 13 14 15 19 23 27
19 20 19 24 25 26 26 17 16 11 6 7 10 4 8 4 9 17 20 20 20 20 16 11 5 4 3 3 3 3 6 4 4 3 22 25 24 20 16 11 8 4 4 6 9 11 13 14 15 16 19 22 26 28
16 16 21 23 23 24 25 12 9 9 8 6 4 13 8 7 9 13 19 15 12 8 3 3 5 3 3 3 3 1 3 3 15 28 27 23 20 16 12 7 5 4 5 7 9 10 11 13 16 19 23 24 24 27
14 17 19 22 24 19 20 15 7 9 8 9 4 15 14 17 13 15 18 14 9 6 4 3 7 3 3 5 2 2 6 20 30 29 21 17 13 10 7 5 4 3 5 6 8 10 12 14 17 18 21 25 28 29
12 15 17 21 21 13 9 11 9 5 9 5 10 14 11 14 21 20 18 20 19 13 9 5 5 2 2 2 9 20 25 27 25 19 15 12 10 6 5 4 2 3 5 7 8 11 12 12 16 20 24 27 27 26
10 13 15 19 18 7 6 8 7 7 6 8 13 14 8 8 13 19 18 18 18 7 9 4 3 4 7 18 23 23 20 19 18 17 13 10 7 6 5 2 2 5 7 8 7 9 12 16 19 22 25 23 23 25
10 13 16 17 13 14 7 6 7 6 5 7 10 9 6 14 13 13 13 13 11 7 3 10 15 19 20 19 17 15 14 10 9 7 9 9 7 7 4 2 5 5 5 7 9 13 16 19 22 23 22 21 21 21
8 11 11 12 10 7 8 11 5 5 5 5 7 8 8 5 8 11 9 12 6 8 7 8 11 11 11 11 9 7 6 5 5 6 6 7 8 5 3 4 5 6 8 11 13 16 18 21 22 21 19 19 19 19
6 8 6 10 4 8 4 7 5 7 4 5 5 4 5 5 9 7 5 6 6 11 10 4 4 6 6 8 7 6 5 3 4 5 6 6 4 3 5 6 8 11 11 12 15 17 19 20 19 18 17 18 18 19
6 5 6 6 8 2 4 6 6 5 4 4 3 3 3 6 8 6 3 4 10 12 8 3 1 6 7 7 7 9 8 7 5 4 2 1 3 5 6 9 11 12 14 14 16 17 19 19 18 16 16 17 17 19
3 7 5 4 6 5 6 5 5 4 3 3 2 3 3 6 3 3 2 4 12 15 17 13 12 11 12 13 12 9 7 4 3 2 4 6 7 8 10 12 12 13 15 15 15 20 19 18 17 16 16 16 18 20
5 5 4 1 3 3 1 3 2 0 2 3 1 2 3 3 4 1 2 4 7 12 16 17 15 13 13 10 8 5 6 5 6 7 7 9 10 10 11 11 12 12 12 16 19 20 20 19 19 18 18 15 16 19
3 2 4 4 3 4 4 4 3 2 2 1 1 2 3 4 2 1 2 4 5 8 9 9 9 9 10 9 8 8 8 7 8 8 10 11 12 10 11 12 14 15 17 17 18 19 21 21 20 19 18 18 18 20
4 2 2 0 3 3 3 2 1 1 0 2 3 3 3 1 2 2 3 4 4 4 6 7 8 8 8 8 9 10 11 12 12 13 12 11 10 11 12 12 15 17 19 19 19 19 19 20 20 18 19 20 21 20
3 3 1 4 2 3 3 2 1 2 2 1 2 2 3 4 4 5 5 4 4 4 4 5 5 8 9 12 13 15 15 16 14 10 9 8 6 6 10 13 14 14 15 16 14 16 18 18 17 17 18 19 19 19
3 3 2 2 2 1 2 3 3 4 4 4 5 6 6 7 6 5 5 4 4 3 3 5 8 11 14 15 13 12 13 11 10 11 12 12 12 12 12 13 13 13 13 15 16 15 12 11 11 11 13 13 12 8
1 2 2 2 2 2 2 2 2 3 3 4 5 5 8 6 7 7 7 7 6 6 6 4 7 12 15 17 18 17 13 11 12 12 13 14 15 15 14 13 13 14 15 16 14 12 11 11 12 11 9 6 5 5
2 2 2 2 1 2 2 2 2 2 2 2 3 4 5 4 3 6 5 3 3 5 7 9 12 15 17 17 17 16 14 14 13 12 13 14 14 14 14 15 15 17 16 14 11 10 11 10 8 5 4 4 5 6
2 2 2 1 1 2 2 2 2 2 3 3 3 3 3 3 3 4 3 2 5 7 8 9 13 17 17 17 16 12 14 14 14 14 16 16 14 14 14 15 15 13 10 8 9 8 6 3 3 4 5 5 6 7
Wind_Direction
306 304 305 303 303 299 298 297 292 290 287 284 277 272 267 259 249 243 241 235 222 234 247 248 232 216 182 182 160 154 113 195 112 176 170 205 190 219 163 168 178 171 156 197 127 183 268 165 103 165 213 141 167 176
305 304 304 302 303 299 299 295 292 289 283 277 276 273 270 261 254 242 234 229 227 225 241 247 246 243 236 238 210 176 215 164 174 130 194 123 177 155 161 232 357 223 196 180 188 217 306 174 118 162 138 153 174 190
302 303 302 302 301 302 299 298 294 290 284 280 278 273 268 264 254 249 240 222 217 226 237 242 248 239 226 223 220 188 213 192 193 186 155 163 192 142 163 225 190 240 170 201 128 201 155 178 152 150 172 168 215 224
301 302 301 306 301 301 302 298 295 290 288 276 283 271 264 259 250 249 237 223 213 206 212 234 234 236 235 224 219 218 210 194 182 175 149 150 180 198 196 251 183 183 155 167 224 217 125 188 183 156 239 288 259 242
302 305 306 304 303 308 305 303 300 296 292 283 285 272 263 253 244 244 242 232 213 202 189 187 207 219 216 214 218 216 211 197 171 148 123 194 127 127 80 78 239 195 177 170 211 199 151 144 154 277 262 253 242 231
306 308 309 306 309 310 307 306 305 300 296 291 279 263 253 241 232 229 233 236 209 206 214 156 179 193 201 200 198 195 191 188 175 146 149 186 176 166 180 222 262 203 169 159 160 190 150 174 269 261 243 242 238 243
308 311 311 310 314 314 316 313 311 310 300 286 273 256 241 226 208 202 204 210 198 198 196 131 155 165 175 169 169 175 179 162 151 136 160 147 166 184 174 202 301 174 151 147 154 168 146 128 121 35 201 237 244 257
312 314 313 316 318 321 320 322 322 317 306 285 257 237 219 200 195 200 208 196 191 189 189 149 116 145 164 146 125 146 141 146 163 151 143 143 143 176 224 190 124 130 128 134 127 113 123 125 113 90 82 109 285 281
313 316 317 321 323 326 325 332 332 328 325 287 191 173 161 172 178 191 201 159 173 184 168 127 151 157 158 119 121 119 142 127 157 138 168 154 158 212 176 172 151 132 152 160 111 101 113 137 119 80 13 335 319 305
313 317 322 324 326 330 331 338 348 15 84 109 118 124 109 153 170 179 151 156 165 169 142 108 114 126 155 125 104 113 123 127 151 149 142 198 139 119 133 132 130 171 160 153 136 111 108 104 85 52 30 21 6 332
314 319 322 327 330 338 340 342 357 73 114 89 44 58 121 148 174 99 103 148 137 137 114 112 120 128 122 119 116 118 131 128 149 172 163 158 164 158 138 138 152 143 130 121 116 110 103 98 89 77 67 338 306 305
317 319 324 331 333 341 346 346 352 12 35 64 101 98 135 172 64 94 105 93 79 136 111 104 121 117 106 112 104 124 111 143 162 136 119 160 165 147 152 144 134 130 123 114 106 99 87 69 25 309 296 301 312 324
320 320 327 334 337 345 352 353 354 358 14 44 35 33 8 3 63 75 117 89 108 128 132 141 112 110 106 95 86 109 112 119 119 96 158 174 153 148 152 146 136 129 122 113 107 97 18 295 296 299 301 308 315 320
318 323 325 329 335 345 358 353 353 355 25 37 24 22 29 8 38 25 65 109 112 120 115 105 86 88 100 82 123 97 78 117 104 145 201 173 154 149 148 144 140 135 127 115 68 344 330 318 312 303 303 310 314 317
316 324 328 336 344 345 347 351 346 359 35 46 30 35 23 8 45 50 76 88 100 110 108 95 69 81 75 108 73 110 136 144 196 173 156 154 152 150 150 151 150 154 184 248 291 310 316 312 308 304 302 305 311 314
323 329 337 341 345 347 347 349 9 33 43 43 38 23 344 22 51 60 76 72 90 91 80 67 86 84 80 102 111 135 135 181 175 167 142 145 144 147 150 153 161 184 239 277 293 299 303 306 304 303 306 311 312 314
333 338 342 343 342 343 2 17 21 41 39 40 12 14 21 41 48 50 69 67 71 76 74 96 72 70 114 90 108 211 156 152 144 139 139 141 144 149 153 159 181 229 269 283 290 296 298 300 303 308 311 317 319 320
341 348 352 348 348 347 8 26 51 54 41 18 29 5 39 47 58 63 60 53 72 67 56 92 124 102 119 119 153 160 112 127 141 137 136 138 141 146 158 178 212 244 278 289 296 298 300 308 315 320 323 324 324 326
343 353 353 353 353 359 10 29 35 72 38 23 19 28 44 50 64 71 62 52 57 69 94 84 70 77 107 108 120 131 131 134 136 139 140 143 146 157 174 189 233 275 291 293 300 307 317 327 330 329 328 327 328 330
346 350 358 0 6 25 47 31 35 53 32 10 24 28 41 30 39 54 63 45 37 46 38 43 36 27 74 111 127 128 132 140 145 143 148 154 161 172 178 180 298 300 303 307 316 322 327 331 332 330 330 330 326 326
348 0 8 9 22 43 67 23 43 43 19 45 10 25 36 45 43 41 35 32 47 36 54 57 73 82 95 101 107 117 126 137 145 151 162 167 173 174 175 293 317 323 327 330 331 332 332 332 332 331 328 328 326 329
357 4 7 16 27 46 58 32 43 17 42 31 23 27 31 26 17 17 17 40 50 38 39 45 61 77 87 90 97 116 126 140 148 157 167 176 175 184 251 300 316 319 323 323 325 328 330 330 328 326 323 323 327 327
359 5 20 16 53 36 25 11 45 24 44 8 13 39 22 15 6 9 65 51 47 3 353 359 84 95 99 108 117 123 128 139 150 156 159 167 194 251 301 313 318 321 322 318 318 322 326 326 322 318 322 322 321 325
8 19 20 29 26 51 17 31 34 37 47 30 33 30 15 342 353 55 70 50 10 15 24 23 126 158 134 122 101 99 104 109 116 132 145 254 287 297 309 316 320 319 315 312 312 316 320 320 319 318 318 320 325 328
11 10 9 3 25 44 33 13 349 42 53 338 45 0 339 356 58 50 49 17 28 45 56 75 95 112 117 110 103 96 89 82 72 356 319 316 311 312 316 316 314 309 306 302 306 313 319 321 320 320 324 324 326 332
63 9 44 343 348 80 147 53 20 9 93 35 3 345 5 75 60 20 352 19 42 53 63 69 76 89 91 87 81 64 33 11 356 337 335 327 322 322 316 310 306 308 302 308 312 314 316 320 320 321 324 322 326 326
48 341 41 49 46 95 68 75 88 89 65 78 241 34 52 60 17 328 88 74 89 68 62 62 63 67 70 66 56 40 24 8 356 340 327 320 317 309 301 298 298 307 310 312 313 313 314 317 317 320 321 322 326 330
71 46 107 55 69 55 118 60 77 75 233 111 114 46 96 124 87 97 102 114 127 74 71 74 71 63 51 30 9 355 341 334 327 319 312 304 294 290 293 289 298 307 307 308 308 309 311 311 313 316 318 319 321 325
56 71 5 31 55 57 60 109 121 60 45 147 93 74 87 75 108 120 125 123 114 112 99 74 43 27 12 359 349 339 333 330 330 329 326 321 319 308 299 299 300 298 298 300 301 303 305 306 309 308 304 307 313 316
39 34 57 59 78 28 53 65 82 85 83 95 102 106 97 103 100 112 121 132 121 106 72 36 21 8 2 359 2 353 342 341 340 342 342 339 334 328 325 321 319 318 316 314 314 314 310 303 303 305 306 310 315 324
50 18 46 63 89 79 81 92 102 103 115 105 101 112 122 124 111 99 109 110 97 73 48 18 3 355 354 353 352 352 353 348 344 340 332 329 328 329 328 326 326 327 325 324 323 323 325 327 325 322 326 339 358 8
41 58 45 50 77 46 73 98 95 94 88 102 91 113 124 121 117 151 130 93 32 1 356 355 351 355 351 348 344 338 340 342 340 336 328 325 328 330 333 333 333 330 330 331 332 329 324 323 329 349 20 33 30 17
48 41 51 64 73 72 53 104 80 82 74 81 84 100 89 95 114 157 193 278 337 336 332 339 347 348 344 339 339 335 335 335 334 332 327 325 325 324 322 323 323 327 328 328 328 328 333 359 49 66 60 39 27 20
Height
1484 1481 1477 1473 1468 1464 1460 1457 1455 1454 1452 1452 1452 1454 1457 1460 1465 1468 1463 1469 1475 1471 1473 1470 1470 1469 1469 1473 1477 1481 1487 1490 1494 1497 1498 1496 1500 1494 1494 1494 1499 1499 1510 1512 1514 1510 1500 1484 1489 1492 1488 1486 1489 1492
1475 1470 1466 1461 1456 1451 1448 1444 1441 1439 1438 1438 1439 1440 1443 1447 1451 1456 1451 1453 1462 1463 1460 1461 1463 1461 1463 1464 1466 1471 1469 1469 1473 1482 1487 1489 1490 1495 1491 1490 1492 1491 1486 1489 1492 1489 1482 1483 1485 1486 1487 1488 1490 1492
1465 1460 1455 1450 1444 1438 1433 1429 1426 1423 1421 1420 1421 1423 1426 1430 1435 1440 1440 1439 1447 1450 1452 1455 1449 1453 1454 1457 1459 1461 1465 1465 1465 1467 1471 1475 1478 1481 1488 1490 1484 1483 1482 1485 1485 1483 1482 1483 1485 1486 1488 1490 1491 1493
1456 1451 1445 1438 1431 1425 1418 1412 1407 1403 1399 1398 1398 1401 1404 1410 1417 1425 1425 1423 1431 1436 1438 1435 1437 1445 1447 1449 1451 1453 1456 1459 1463 1465 1467 1469 1473 1471 1477 1475 1477 1476 1478 1478 1482 1482 1481 1482 1484 1486 1487 1488 1489 1491
1446 1441 1434 1426 1419 1411 1402 1394 1386 1378 1371 1366 1364 1365 1372 1383 1395 1407 1409 1409 1412 1423 1417 1425 1429 1433 1437 1440 1446 1448 1450 1454 1458 1462 1465 1469 1468 1472 1475 1477 1477 1470 1469 1471 1476 1475 1477 1481 1483 1484 1486 1487 1488 1489
1436 1429 1421 1414 1405 1395 1385 1373 1362 1348 1333 1321 1314 1317 1329 1346 1372 1394 1397 1393 1392 1410 1415 1419 1422 1424 1430 1434 1438 1443 1447 1449 1452 1454 1461 1464 1465 1469 1473 1471 1464 1465 1465 1465 1470 1474 1477 1479 1481 1482 1483 1484 1486 1488
1426 1418 1410 1401 1391 1380 1366 1352 1334 1309 1285 1266 1259 1264 1277 1303 1339 1350 1359 1358 1367 1396 1400 1408 1413 1418 1425 1430 1434 1439 1443 1445 1449 1452 1457 1460 1464 1467 1470 1469 1463 1464 1466 1468 1472 1474 1476 1477 1478 1480 1481 1483 1484 1486
1417 1409 1400 1390 1380 1367 1352 1332 1304 1270 1243 1224 1219 1227 1247 1282 1322 1345 1358 1351 1363 1383 1386 1388 1404 1414 1417 1422 1429 1434 1439 1443 1448 1449 1454 1457 1462 1464 1463 1462 1462 1464 1467 1470 1471 1472 1474 1476 1478 1479 1480 1481 1482 1483
1409 1401 1392 1382 1371 1357 1341 1321 1289 1257 1227 1209 1210 1226 1259 1291 1305 1327 1352 1341 1356 1367 1366 1371 1385 1401 1408 1415 1422 1430 1434 1440 1444 1446 1450 1454 1457 1455 1454 1457 1461 1464 1467 1469 1470 1471 1472 1474 1476 1477 1478 1479 1480 1481
1403 1394 1385 1376 1364 1351 1336 1316 1287 1270 1250 1240 1242 1256 1275 1289 1309 1333 1325 1332 1343 1346 1354 1364 1376 1392 1401 1409 1420 1427 1430 1436 1440 1445 1447 1448 1451 1454 1454 1456 1459 1462 1464 1467 1468 1470 1471 1472 1474 1476 1477 1478 1479 1480
1397 1389 1380 1370 1360 1347 1335 1318 1297 1281 1277 1273 1272 1278 1287 1303 1312 1300 1315 1323 1335 1343 1347 1360 1371 1382 1398 1403 1415 1421 1426 1432 1437 1442 1444 1446 1451 1453 1455 1456 1460 1461 1463 1465 1467 1469 1471 1472 1473 1475 1476 1477 1478 1478
1392 1384 1376 1367 1357 1347 1334 1321 1307 1293 1289 1287 1287 1292 1298 1301 1299 1309 1317 1322 1326 1342 1348 1355 1369 1379 1392 1402 1412 1421 1426 1431 1434 1440 1442 1445 1447 1449 1453 1456 1459 1461 1462 1464 1468 1470 1472 1474 1475 1475 1475 1475 1475 1474
1387 1381 1373 1365 1356 1347 1336 1324 1310 1302 1297 1297 1300 1301 1303 1306 1308 1308 1317 1329 1335 1342 1347 1353 1367 1381 1394 1401 1411 1417 1421 1429 1435 1438 1438 1442 1445 1447 1450 1455 1458 1461 1464 1466 1468 1470 1473 1474 1474 1473 1473 1471 1470 1469
1384 1378 1371 1363 1355 1347 1338 1331 1321 1311 1307 1311 1315 1318 1317 1321 1322 1323 1325 1330 1336 1340 1348 1354 1365 1379 1393 1402 1411 1417 1427 1431 1438 1441 1440 1440 1441 1444 1450 1454 1457 1460 1463 1467 1469 1470 1471 1471 1471 1470 1469 1467 1464 1462
1381 1376 1370 1363 1355 1348 1340 1334 1329 1324 1319 1321 1323 1329 1333 1333 1332 1329 1330 1333 1340 1347 1350 1359 1374 1385 1395 1404 1409 1419 1427 1428 1427 1429 1431 1434 1439 1444 1450 1454 1457 1459 1463 1465 1467 1467 1468 1468 1467 1466 1465 1462 1459 1456
1380 1374 1369 1362 1356 1349 1341 1334 1329 1326 1329 1333 1339 1341 1342 1338 1338 1339 1341 1343 1349 1353 1358 1364 1377 1390 1400 1404 1409 1415 1418 1419 1421 1424 1427 1432 1437 1443 1449 1453 1456 1458 1461 1463 1464 1464 1464 1463 1462 1461 1459 1456 1453 1449
1380 1375 1369 1364 1357 1351 1344 1336 1333 1336 1343 1348 1355 1352 1350 1349 1351 1351 1353 1356 1357 1359 1367 1373 1382 1396 1402 1407 1410 1412 1411 1413 1416 1422 1428 1433 1438 1443 1448 1452 1454 1457 1459 1460 1460 1461 1460 1459 1457 1455 1452 1449 1445 1442
1381 1377 1372 1366 1359 1353 1348 1343 1345 1352 1359 1361 1361 1360 1358 1358 1360 1362 1364 1362 1362 1364 1369 1378 1386 1395 1398 1403 1410 1410 1412 1415 1420 1425 1431 1436 1439 1444 1448 1451 1453 1454 1455 1456 1457 1457 1456 1454 1452 1449 1445 1441 1437 1434
1383 1379 1375 1369 1362 1358 1355 1356 1358 1366 1371 1370 1370 1368 1367 1368 1369 1369 1370 1369 1369 1371 1374 1380 1389 1398 1400 1402 1405 1410 1414 1417 1423 1429 1433 1436 1440 1443 1446 1449 1450 1451 1452 1453 1453 1452 1450 1448 1445 1442 1439 1435 1431 1428
1384 1382 1378 1372 1366 1363 1365 1369 1371 1374 1377 1379 1377 1375 1375 1376 1376 1376 1376 1377 1376 1378 1384 1394 1401 1402 1403 1406 1410 1413 1418 1422 1425 1429 1434 1436 1439 1442 1445 1446 1447 1449 1449 1448 1447 1446 1444 1442 1440 1437 1434 1431 1429 1426
1385 1382 1379 1376 1372 1371 1377 1381 1381 1384 1385 1384 1384 1383 1385 1384 1385 1385 1386 1387 1387 1397 1404 1408 1408 1409 1411 1413 1416 1419 1422 1425 1428 1430 1432 1435 1438 1440 1442 1444 1445 1445 1444 1443 1442 1440 1439 1436 1434 1432 1430 1428 1426 1422
1388 1386 1383 1381 1380 1380 1384 1388 1390 1390 1390 1392 1391 1392 1393 1395 1396 1397 1397 1397 1406 1412 1412 1414 1414 1415 1416 1418 1420 1422 1424 1426 1428 1430 1432 1435 1437 1439 1441 1441 1441 1441 1439 1437 1436 1435 1434 1432 1430 1428 1426 1424 1421 1418
1391 1389 1387 1387 1386 1389 1396 1394 1393 1395 1397 1400 1399 1401 1404 1404 1404 1404 1407 1412 1415 1416 1415 1415 1417 1419 1420 1421 1422 1423 1425 1427 1428 1431 1433 1435 1437 1438 1438 1437 1436 1435 1435 1433 1432 1431 1431 1430 1428 1425 1422 1420 1417 1414
1394 1393 1392 1393 1395 1400 1399 1399 1401 1402 1403 1406 1407 1410 1411 1410 1409 1410 1418 1421 1423 1419 1416 1415 1417 1419 1422 1423 1424 1425 1427 1429 1431 1432 1434 1435 1435 1435 1434 1433 1431 1430 1430 1430 1429 1429 1429 1426 1424 1421 1418 1415 1412 1409
1399 1402 1402 1402 1402 1402 1407 1409 1409 1408 1416 1417 1414 1418 1416 1414 1418 1421 1426 1426 1425 1423 1421 1419 1419 1421 1422 1425 1426 1428 1429 1431 1432 1433 1433 1433 1432 1431 1429 1427 1427 1427 1427 1427 1427 1426 1424 1422 1419 1416 1413 1410 1408 1404
1406 1407 1407 1407 1408 1407 1411 1416 1417 1416 1417 1416 1420 1419 1418 1419 1424 1432 1429 1429 1428 1427 1425 1425 1425 1426 1426 1427 1428 1429 1430 1430 1430 1430 1429 1428 1427 1426 1425 1425 1426 1426 1426 1425 1423 1420 1418 1416 1413 1411 1408 1407 1404 1401
1411 1411 1410 1411 1410 1410 1412 1414 1415 1415 1417 1418 1420 1420 1422 1432 1435 1431 1430 1430 1430 1430 1430 1430 1430 1430 1430 1430 1430 1430 1429 1429 1429 1428 1428 1426 1425 1424 1424 1424 1424 1424 1422 1420 1418 1416 1413 1410 1408 1406 1403 1402 1400 1397
1411 1412 1414 1413 1412 1412 1414 1416 1417 1417 1417 1418 1419 1424 1427 1427 1430 1432 1432 1432 1433 1433 1433 1432 1431 1431 1431 1431 1430 1430 1429 1428 1427 1425 1424 1423 1423 1422 1422 1421 1420 1418 1416 1414 1413 1411 1408 1406 1403 1401 1399 1397 1395 1394
1413 1414 1414 1414 1414 1414 1415 1417 1418 1419 1420 1420 1421 1423 1427 1429 1431 1432 1433 1433 1434 1434 1434 1434 1434 1433 1432 1431 1429 1428 1427 1425 1424 1422 1422 1421 1421 1420 1418 1417 1416 1414 1412 1410 1409 1406 1404 1401 1399 1398 1396 1394 1392 1390
1415 1415 1415 1416 1417 1418 1419 1419 1420 1420 1421 1421 1423 1426 1429 1431 1433 1434 1434 1435 1435 1436 1435 1435 1434 1433 1431 1430 1429 1427 1425 1423 1421 1420 1418 1418 1417 1416 1414 1412 1411 1409 1407 1405 1403 1401 1399 1397 1396 1395 1393 1391 1389 1387
1417 1417 1417 1417 1418 1420 1420 1420 1421 1422 1422 1423 1424 1425 1428 1432 1434 1435 1435 1436 1436 1435 1435 1435 1434 1432 1430 1428 1425 1424 1423 1421 1419 1418 1416 1415 1414 1412 1410 1408 1407 1405 1403 1400 1398 1396 1395 1394 1393 1391 1390 1389 1388 1387
1418 1418 1418 1419 1419 1420 1420 1420 1421 1422 1423 1424 1426 1427 1430 1431 1433 1435 1436 1436 1436 1436 1435 1434 1432 1430 1428 1426 1424 1422 1420 1419 1417 1416 1415 1413 1411 1408 1406 1404 1402 1400 1398 1396 1395 1394 1393 1392 1391 1390 1389 1388 1388 1387
1419 1419 1419 1419 1419 1420 1421 1421 1422 1424 1425 1426 1428 1429 1430 1432 1434 1436 1436 1436 1436 1435 1434 1433 1432 1429 1427 1424 1422 1420 1419 1417 1415 1413 1411 1409 1407 1405 1403 1401 1399 1397 1396 1395 1394 1393 1392 1391 1390 1390 1390 1389 1388 1387